KX4BE Weather Reports


Display with metric or nautical units.
time (UTC)temp
F
wind
direction
speed
MPH
gust
MPH
rain 1hr
in
rain 24hr
in
rain mn
in
humidity
%
barometer
mb
20260505032849 66 209 2.0 6.0 0.00 0.00 0.00 54 1015.8
20260505032348 67 212 1.0 6.0 0.00 0.00 0.00 54 1015.8
20260505031831 67 236 1.0 4.0 0.00 0.00 0.00 54 1015.7
20260505031330 67 259 1.0 8.0 0.00 0.00 0.00 54 1015.8
20260505030847 67 223 1.0 8.0 0.00 0.00 0.00 53 1015.6
20260505030347 67 196 1.0 5.0 0.00 0.00 0.00 53 1015.6
20260505025840 68 202 1.0 5.0 0.00 0.00 0.00 53 1015.8
20260505025359 68 217 1.0 9.0 0.00 0.00 0.00 52 1015.7
20260505024833 68 289 1.0 9.0 0.00 0.00 0.00 52 1015.8
20260505024334 68 211 2.0 0.0 0.00 0.00 0.00 52 1015.5
20260505023831 68 248 3.0 8.0 0.00 0.00 0.00 51 1015.8
20260505023412 68 191 2.0 7.0 0.00 0.00 0.00 52 1015.9
20260505022846 68 198 3.0 8.0 0.00 0.00 0.00 51 1015.9
20260505022346 68 186 3.0 9.0 0.00 0.00 0.00 52 1015.9
20260505021845 68 178 2.0 7.0 0.00 0.00 0.00 53 1015.9
20260505021345 68 160 3.0 6.0 0.00 0.00 0.00 53 1015.8
20260505020841 68 207 3.0 6.0 0.00 0.00 0.00 53 1015.8
20260505020343 68 187 2.0 6.0 0.00 0.00 0.00 54 1015.6
20260505015838 68 178 3.0 6.0 0.00 0.00 0.00 53 1015.6
20260505015343 68 217 3.0 6.0 0.00 0.00 0.00 54 1015.6
20260505014838 68 190 2.0 7.0 0.00 0.00 0.00 55 1015.6
20260505014338 68 191 1.0 6.0 0.00 0.00 0.00 55 1015.6
20260505013856 68 196 2.0 7.0 0.00 0.00 0.00 55 1015.6
20260505013336 68 207 3.0 7.0 0.00 0.00 0.00 55 1015.5
20260505012831 68 198 1.0 9.0 0.00 0.00 0.00 57 1015.6
20260505012330 68 159 4.0 10.0 0.00 0.00 0.00 59 1015.5
20260505011850 68 186 2.0 5.0 0.00 0.00 0.00 60 1015.5
20260505011347 68 184 3.0 5.0 0.00 0.00 0.00 60 1015.4
20260505010845 68 169 1.0 5.0 0.00 0.00 0.00 59 1015.4
20260505010406 69 223 1.0 9.0 0.00 0.00 0.00 58 1015.4
20260505005839 69 239 1.0 9.0 0.00 0.00 0.00 58 1015.3
20260505005339 69 173 2.0 4.0 0.00 0.00 0.00 57 1015.1
20260505004838 69 226 1.0 4.0 0.00 0.00 0.00 56 1015.2
20260505004338 70 117 1.0 5.0 0.00 0.00 0.00 56 1015.2
20260505003855 70 192 3.0 5.0 0.00 0.00 0.00 56 1015.1
20260505003354 71 211 1.0 9.0 0.00 0.00 0.00 55 1015.1
20260505002848 71 178 2.0 9.0 0.00 0.00 0.00 54 1015.1
20260505002332 71 211 2.0 8.0 0.00 0.00 0.00 55 1015.0
20260505001331 71 171 1.0 10.0 0.00 0.00 0.00 54 1015.0
20260505000828 72 178 1.0 8.0 0.00 0.00 0.00 54 1015.0
20260505000351 72 211 4.0 8.0 0.00 0.00 0.00 53 1014.8
20260504235841 72 146 3.0 8.0 0.00 0.00 0.00 53 1014.9
20260504235402 72 205 2.0 8.0 0.00 0.00 0.00 52 1015.0
20260504234838 73 175 3.0 10.0 0.00 0.00 0.00 53 1015.0
20260504234337 73 202 6.0 11.0 0.00 0.00 0.00 52 1014.9
20260504233835 73 212 3.0 9.0 0.00 0.00 0.00 53 1014.9
20260504233333 73 179 3.0 9.0 0.00 0.00 0.00 53 1014.9
20260504232829 74 223 4.0 12.0 0.00 0.00 0.00 53 1014.9
20260504232330 74 141 3.0 10.0 0.00 0.00 0.00 53 1014.9
20260504231848 74 221 6.0 10.0 0.00 0.00 0.00 52 1015.0
20260504231349 75 182 3.0 10.0 0.00 0.00 0.00 51 1015.0
20260504230831 75 217 4.0 9.0 0.00 0.00 0.00 49 1015.1
20260504230350 75 186 2.0 11.0 0.00 0.00 0.00 47 1015.0
20260504225841 75 207 5.0 11.0 0.00 0.00 0.00 45 1015.0
20260504225341 75 163 5.0 10.0 0.00 0.00 0.00 45 1015.0
20260504224858 76 232 4.0 10.0 0.00 0.00 0.00 48 1015.1
20260504224338 76 205 4.0 11.0 0.00 0.00 0.00 48 1015.0
20260504223837 76 216 5.0 11.0 0.00 0.00 0.00 48 1015.0
20260504223338 76 140 3.0 14.0 0.00 0.00 0.00 48 1015.0
20260504222828 77 215 3.0 14.0 0.00 0.00 0.00 48 1014.9
20260504222330 77 160 3.0 11.0 0.00 0.00 0.00 49 1014.9
20260504221828 77 183 5.0 17.0 0.00 0.00 0.00 48 1014.9
20260504221349 78 229 2.0 17.0 0.00 0.00 0.00 50 1015.0
20260504220906 78 161 5.0 10.0 0.00 0.00 0.00 49 1014.9
20260504220347 78 229 3.0 11.0 0.00 0.00 0.00 47 1014.9
20260504215841 78 248 2.0 12.0 0.00 0.00 0.00 45 1014.9
20260504215339 78 134 3.0 12.0 0.00 0.00 0.00 46 1014.9
20260504214835 78 160 7.0 12.0 0.00 0.00 0.00 44 1014.8
20260504214335 78 218 4.0 10.0 0.00 0.00 0.00 47 1014.8
20260504213855 78 229 3.0 9.0 0.00 0.00 0.00 48 1014.8
20260504213338 78 190 4.0 9.0 0.00 0.00 0.00 47 1014.8
20260504212852 79 202 2.0 7.0 0.00 0.00 0.00 48 1014.8
20260504212332 78 185 3.0 10.0 0.00 0.00 0.00 48 1014.8
20260504211847 78 184 3.0 10.0 0.00 0.00 0.00 47 1014.9
20260504211347 78 191 6.0 10.0 0.00 0.00 0.00 47 1015.0
20260504210844 79 242 3.0 9.0 0.00 0.00 0.00 47 1015.0
20260504210404 79 194 4.0 9.0 0.00 0.00 0.00 46 1014.9
20260504205858 80 224 2.0 11.0 0.00 0.00 0.00 47 1015.1
20260504205337 80 200 3.0 11.0 0.00 0.00 0.00 47 1015.1
20260504204834 80 144 2.0 9.0 0.00 0.00 0.00 46 1015.1
20260504204355 80 202 1.0 9.0 0.00 0.00 0.00 49 1015.2
20260504203830 80 216 2.0 9.0 0.00 0.00 0.00 49 1015.1
20260504203350 79 202 3.0 9.0 0.00 0.00 0.00 47 1015.1
20260504202844 79 188 4.0 10.0 0.00 0.00 0.00 48 1015.3
20260504202343 79 232 3.0 10.0 0.00 0.00 0.00 48 1015.3
20260504201841 79 211 3.0 14.0 0.00 0.00 0.00 47 1015.4
20260504201336 79 127 5.0 14.0 0.00 0.00 0.00 47 1015.5
20260504200855 79 198 3.0 9.0 0.00 0.00 0.00 48 1015.5
20260504200336 79 198 2.0 7.0 0.00 0.00 0.00 49 1015.5
20260504195832 78 206 1.0 7.0 0.00 0.00 0.00 49 1015.6
20260504195335 79 230 3.0 10.0 0.00 0.00 0.00 48 1015.8
20260504194833 79 221 5.0 10.0 0.00 0.00 0.00 48 1015.8
20260504194333 79 277 2.0 9.0 0.00 0.00 0.00 47 1015.9
20260504193848 79 217 4.0 9.0 0.00 0.00 0.00 47 1016.0
20260504193349 78 201 2.0 4.0 0.00 0.00 0.00 49 1016.1
20260504192839 79 340 1.0 4.0 0.00 0.00 0.00 49 1016.1
20260504192340 78 205 1.0 5.0 0.00 0.00 0.00 50 1016.2
20260504191839 78 209 2.0 5.0 0.00 0.00 0.00 53 1016.4
20260504191339 78 178 2.0 4.0 0.00 0.00 0.00 51 1016.4
20260504190835 78 162 1.0 9.0 0.00 0.00 0.00 52 1016.7
20260504190335 78 275 3.0 9.0 0.00 0.00 0.00 49 1016.8
20260504185849 78 19 1.0 7.0 0.00 0.00 0.00 49 1016.8
20260504185408 78 195 3.0 8.0 0.00 0.00 0.00 49 1016.8
20260504184845 78 228 4.0 7.0 0.00 0.00 0.00 49 1016.8
20260504184345 78 178 1.0 7.0 0.00 0.00 0.00 51 1016.8
20260504183843 78 205 3.0 10.0 0.00 0.00 0.00 49 1016.8
20260504183341 78 159 4.0 10.0 0.00 0.00 0.00 49 1016.9
20260504182841 78 163 1.0 10.0 0.00 0.00 0.00 50 1016.9
20260504182342 78 157 3.0 10.0 0.00 0.00 0.00 49 1016.9
20260504181837 77 169 1.0 9.0 0.00 0.00 0.00 50 1017.1
20260504181357 77 179 4.0 9.0 0.00 0.00 0.00 50 1017.1
20260504180835 77 205 2.0 13.0 0.00 0.00 0.00 49 1017.2
20260504180356 77 161 6.0 13.0 0.00 0.00 0.00 49 1017.2
20260504175847 77 236 2.0 9.0 0.00 0.00 0.00 51 1017.3
20260504175407 77 234 3.0 9.0 0.00 0.00 0.00 49 1017.3
20260504174843 77 186 2.0 5.0 0.00 0.00 0.00 52 1017.4
20260504174342 77 325 2.0 7.0 0.00 0.00 0.00 50 1017.5
20260504173840 77 218 3.0 7.0 0.00 0.00 0.00 49 1017.5
20260504173340 76 217 2.0 8.0 0.00 0.00 0.00 51 1017.5
20260504172832 76 324 3.0 8.0 0.00 0.00 0.00 55 1017.5
20260504172332 76 185 3.0 8.0 0.00 0.00 0.00 49 1017.6
20260504171831 76 326 2.0 9.0 0.00 0.00 0.00 51 1017.7
20260504171331 76 199 4.0 9.0 0.00 0.00 0.00 50 1017.8
20260504170910 76 181 2.0 8.0 0.00 0.00 0.00 53 1017.7
20260504170334 76 217 3.0 10.0 0.00 0.00 0.00 51 1017.8
20260504160340 72 150 5.0 10.0 0.00 0.00 0.00 54 1018.6
20260504150842 69 98 2.0 6.0 0.00 0.00 0.00 55 1019.3
20260504150343 68 79 2.0 6.0 0.00 0.00 0.00 57 1019.4
20260504140835 64 96 2.0 6.0 0.00 0.00 0.00 59 1019.8
20260504140336 64 194 2.0 6.0 0.00 0.00 0.00 57 1019.8
20260504130335 60 186 2.0 3.0 0.00 0.00 0.00 69 1019.8
20260504110348 47 223 0.0 0.0 0.00 0.00 0.00 86 1019.3
20260504100346 48 223 1.0 1.0 0.00 0.00 0.00 85 1019.2
20260504081910 48 221 0.0 1.0 0.00 0.00 0.00 84 1019.0
20260504081349 48 221 1.0 1.0 0.00 0.00 0.00 84 1018.9
20260504080908 48 221 0.0 1.0 0.00 0.00 0.00 83 1018.9
20260504080346 48 221 0.0 1.0 0.00 0.00 0.00 83 1018.9
20260504070358 49 209 1.0 2.0 0.00 0.00 0.00 82 1018.9
20260504050333 52 209 1.0 2.0 0.00 0.00 0.00 75 1019.6
20260504045847 53 209 1.0 2.0 0.00 0.00 0.00 74 1019.6
20260504045347 53 209 1.0 2.0 0.00 0.00 0.00 74 1019.7
20260504044845 53 209 1.0 2.0 0.00 0.00 0.00 73 1019.7
20260504044405 53 209 1.0 3.0 0.00 0.00 0.00 73 1019.7
20260504043840 54 209 1.0 4.0 0.00 0.00 0.00 72 1019.8
20260504043340 54 264 1.0 4.0 0.00 0.00 0.00 71 1019.7
20260504042839 54 212 1.0 4.0 0.00 0.00 0.00 70 1019.7
20260504042339 54 188 1.0 5.0 0.00 0.00 0.00 70 1019.8
20260504041837 54 144 1.0 6.0 0.00 0.00 0.00 69 1019.8
20260504041336 54 217 2.0 8.0 0.00 0.00 0.00 70 1019.8
20260504040851 54 196 1.0 8.0 0.00 0.00 0.00 71 1019.9
20260504040351 54 203 1.0 3.0 0.00 0.00 0.00 71 1019.8
20260504035847 54 197 1.0 3.0 0.00 0.00 0.00 71 1019.8
20260504035346 54 347 1.0 2.0 0.00 0.00 0.00 70 1019.8
20260504034903 54 215 1.0 6.0 0.00 0.00 0.00 70 1019.9
20260504034402 54 215 1.0 6.0 0.00 0.00 0.00 71 1019.8
20260504033837 54 119 1.0 4.0 0.00 0.00 0.00 70 1019.9
20260504033354 54 229 1.0 4.0 0.00 0.00 0.00 70 1019.7